Regional Weather Roundup
Issued by NWS Little Rock, AR

Home | Current Version | Previous Version | Text Only | Print | Product List | Glossary Off
Versions: 1 2 3 4 5 6 7 8 9 10 11 12 13 14 15 16 17 18 19 20 21 22 23 24 25 26 27 28 29 30 31 32 33 34 35 36 37 38 39 40 41 42 43 44 45 46 47 48 49 50

000
ASUS44 KLZK 231405
RWRLZK

WEATHER ROUNDUP FOR ARKANSAS
NATIONAL WEATHER SERVICE LITTLE ROCK AR
900 AM CDT MON MAY 23 2016

NOTE: "FAIR" INDICATES FEW OR NO CLOUDS BELOW 12,000 FEET WITH NO
SIGNIFICANT WEATHER AND/OR OBSTRUCTIONS TO VISIBILITY.

ARZ001-003-010-029-231500-
NORTHWEST ARKANSAS

CITY           SKY/WX    TMP DP  RH WIND       PRES   REMARKS
FAYETTEVILLE   CLOUDY    67  54  63 SE13      29.98S
FORT SMITH     CLOUDY    67  57  70 E7        29.96F
HARRISON       MOSUNNY   64  54  69 SE10      30.00R
BENTONVILLE    CLOUDY    68  54  60 SE10      29.98F
ROGERS           N/A     66  56  70 SE9       29.98F
SILOAM SPGS    PTSUNNY   68  52  56 SE13      29.96F
HIGHFILL       CLOUDY    68  58  70 SE8       29.97S
SPRINGDALE     PTSUNNY   66  55  68 E7        30.00R
$$

ARZ004-005-016-231500-
NORTH CENTRAL ARKANSAS

CITY           SKY/WX    TMP DP  RH WIND       PRES   REMARKS
BATESVILLE     SUNNY     68  55  64 CALM      30.03R
FLIPPIN        CLOUDY   N/A N/A N/A CALM      29.99R
MTN HOME       CLOUDY    67  52  58 SE6       30.01R
$$

ARZ040-041-231500-
WEST CENTRAL ARKANSAS

CITY           SKY/WX    TMP DP  RH WIND       PRES   REMARKS
MENA           CLOUDY    70  59  68 CALM      30.03R
MOUNT IDA      CLOUDY    66  60  81 CALM      30.00S
$$

ARZ009-017-025-026-028-231500-
NORTHEAST ARKANSAS

CITY           SKY/WX    TMP DP  RH WIND       PRES   REMARKS
CORNING          N/A     68  57  68 CALM      30.03S
JONESBORO      SUNNY     70  54  56 CALM      30.02R
NEWPORT        SUNNY     72  53  51 CALM      30.03R
WALNUT RIDGE   SUNNY     68  57  68 CALM      30.03R
BLYTHEVILLE    MOSUNNY   74  53  48 SE6       30.03R
NW BLYTHEVILLE MOSUNNY   73  54  49 E5        30.02R
$$

ARZ022-023-033-042-044-231500-
CENTRAL ARKANSAS

CITY           SKY/WX    TMP DP  RH WIND       PRES   REMARKS
LITTLE ROCK    CLOUDY    72  57  59 S3        30.02R
N LITTLE ROCK    N/A     72  56  56 S3        30.00R
JACKSONVILLE   CLOUDY    72  57  59 SE3       30.01R
SEARCY         SUNNY     71  56  58 S3        30.03S
HOT SPRINGS    CLOUDY    70  56  61 VRB3      30.03R
RUSSELLVILLE   CLOUDY    66  55  67 VRB5      30.00R
CLINTON        FAIR      63  54  72 CALM      30.03S
$$

ARZ036-231500-
EAST ARKANSAS

CITY           SKY/WX    TMP DP  RH WIND       PRES   REMARKS
WEST MEMPHIS   SUNNY     71  53  52 SE6       30.02R
$$

ARZ050-053-066-070-073-231500-
SOUTHWEST ARKANSAS

CITY           SKY/WX    TMP DP  RH WIND       PRES   REMARKS
ARKADELPHIA    FAIR      70  65  84 S3        30.02S
CAMDEN         CLOUDY    70  55  60 S5        30.03R
TEXARKANA      PTSUNNY   71  58  63 S8        30.02R
EL DORADO      MOSUNNY   68  58  70 S7        30.03R
DE QUEEN       CLOUDY    65  60  84 S3        30.03R
$$

ARZ056-057-069-231500-
SOUTHEAST ARKANSAS

CITY           SKY/WX    TMP DP  RH WIND       PRES   REMARKS
PINE BLUFF     CLOUDY    72  57  59 SE3       30.02R
STUTTGART      SUNNY     73  52  46 S10       30.03R
MONTICELLO     SUNNY     74  56  53 SE3       30.02R

$$





USA.gov is the U.S. government's official web portal to all federal, state and local government web resources and services.